Regional Weather Roundup
Issued by NWS Jackson, KY

Home | Current Version | Previous Version | Graphics & Text | Print | Product List | Glossary On
Versions: 1 2 3 4 5 6 7 8 9 10 11 12 13 14 15 16 17 18 19 20 21 22 23 24 25 26 27 28 29 30 31 32 33 34 35 36 37 38 39 40 41 42 43 44 45 46 47 48 49 50
000
ASUS43 KJKL 290419
RWRJKL

EAST KENTUCKY HOURLY WEATHER ROUNDUP
NATIONAL WEATHER SERVICE JACKSON KY
1100 PM EST WED JAN 28 2015

NOTE: "FAIR" INDICATES FEW OR NO CLOUDS BELOW 12,000 FEET WITH
NO SIGNIFICANT WEATHER AND/OR OBSTRUCTIONS TO VISIBILITY.

* THESE REPORTS ARE NOT UNDER NWS QUALITY CONTROL AND MAY NOT
  REPORT WEATHER SUCH AS PRECIPITATION AND FOG.

KYZ079-080-083-085-087-088-110-112-115-119-120-290500
...EASTERN KENTUCKY...

CITY           SKY/WX    TMP DP  RH WIND       PRES   REMARKS
JACKSON        CLEAR     30  18  60 SE3       30.20F
LONDON         CLEAR     29  20  69 SE3       30.18F
SOMERSET*      PTCLDY    32  18  55 SE3       30.19F
MONTICELLO*    CLEAR     37  17  44 S9        30.20F WCI  30
MIDDLESBORO*   CLEAR     26  23  89 CALM      30.25F
HARLAN APT*    CLEAR     34  19  55 CALM      30.22F
HAZARD APT*    CLEAR     28  21  74 CALM      30.21
BLACK MTN*       N/A     28  10  47 S10         N/A  WCI  19
PIKEVILLE APT* CLEAR     30  19  64 S3        30.21S
BIG SANDY*     CLEAR     28  21  75 CALM      30.22F
MOREHEAD APT*  PTCLDY    30  19  64 SE5       30.21F WCI  25
ASHLAND*       CLEAR     28  19  69 E5        30.23  WCI  23
$$

KYZ035-036-041-042-044-050-067-078-099-290500
...CENTRAL KENTUCKY...

CITY           SKY/WX    TMP DP  RH WIND       PRES   REMARKS
MT STERLING*   PTCLDY    32  21  64 SE7       30.19F WCI  26
FLEMING/MASON* PTCLDY    28  20  74 SE8       30.19F WCI  20
DANVILLE*      PTCLDY    30  23  74 CALM      30.17F
RICHMOND*      PTCLDY    30  21  69 E6        30.16F WCI  24
LEXINGTON      PTCLDY    32  20  61 SE10      30.15F WCI  24
FRANKFORT      MOCLDY    31  20  63 SE7       30.14F WCI  24
$$

KYZ091>093-OHZ055-061-077-WVZ005-015-034-035-042-290500
...SOUTHERN OHIO/WEST VIRGINIA...

CITY           SKY/WX    TMP DP  RH WIND       PRES   REMARKS
COVINGTON      CLOUDY    32  19  58 SE13      30.14F WCI  22
COLUMBUS       MOCLDY    25  14  63 SE10      30.21F WCI  15
DAYTON         CLOUDY    28  19  69 SE15      30.12F WCI  16
WILMINGTON     CLOUDY    28  18  66 SE10      30.15F WCI  19
HUNTINGTON     PTCLDY    26  17  68 SE6       30.23F WCI  19
CHARLESTON     CLEAR     23  18  81 CALM      30.26F
PINEVILLE*     CLEAR     24  23  96 MISG      30.30S
BECKLEY        CLEAR     24  12  60 SE8       30.21S WCI  15
BLUEFIELD      CLEAR     26  14  60 E3        30.21S
$$

VAZ002-007-008-TNZ017-027-036-066-071-290500
...SOUTHWEST VIRGINIA/EAST TENNESSEE...

CITY           SKY/WX    TMP DP  RH WIND       PRES   REMARKS
WISE*          CLEAR     32  16  51 SE6       30.20F WCI  26
JONESVILLE*    CLEAR     25  23  93 CALM      30.27F
ABINGDON*      CLEAR     27  20  76 E7        30.25S WCI  19
BRISTOL        PTCLDY    25  20  81 CALM      30.26F
KNOXVILLE      CLEAR     29  22  75 NE3       30.24F
OAK RIDGE      CLEAR     30  22  72 CALM      30.26F
CROSSVILLE     CLEAR     34   9  35 SE3       30.18F
NASHVILLE      PTCLDY    40  27  59 S5        30.16R
$$

...KEY TO REMARKS...
VSB - VISIBILITY IN MILES
WCI - WIND CHILL INDEX
HX  - HEAT INDEX

$$


USA.gov is the U.S. government's official web portal to all federal, state and local government web resources and services.